Location: Barrio Pajares
(40.5500°N, 4.1667°W)
Time: 08:55:19
(UTC+00:00)

CZ-4C R/B - Pass Details

Date: 18 April 2024
Orbit: 445 x 584 km, 98.0° (Epoch: 19 May)

Event Time Altitude Azimuth Distance (km) Brightness Sun altitude
Rises 20:50:55 0° 8° (N) 2,479 7.0 -19.9°
Reaches altitude 10° 20:52:59 10° 3° (N) 1,590 6.1 -20.2°
Maximum altitude 20:56:18 54° 286° (WNW) 551 3.6 -20.7°
Enters shadow 20:58:01 25° 218° (SW) 948 4.5 -21.0°
